Weather History for KPLU - July, 2013

Change the Weather History Date:

Tuesday, July 30, 2013

  Actual Average (KTCM) Record (KTCM)
Temperature  
Mean Temperature 64 °F -  
Max Temperature 78 °F 75 °F 95 °F (2003)
Min Temperature 50 °F 52 °F 44 °F (1956)
Degree Days  
Heating Degree Days 1    
Growing Degree Days 14 (Base 50)    
Moisture  
Dew Point 55 °F    
Average Humidity 81    
Maximum Humidity 100    
Minimum Humidity 44    
Precipitation  
Precipitation 0.00 in - - ()
Sea Level Pressure  
Sea Level Pressure 30.12 in    
Wind  
Wind Speed 0 mph (North)    
Max Wind Speed 0 mph    
Max Gust Speed -    
Visibility 10 miles    
Events      
Averages and records for this station are not official NWS values.
T = Trace of Precipitation, MM = Missing Value Source: NWS Daily Summary

Daily Weather History Graph

Daily Weather History Graph

Search for Another Location

Airport or City:

Trip Planner

Search our weather history database for the weather conditions in past years. The results will help you decide how hot, cold, wet, or windy it might be!

Date:

Astronomy

Jul. 30, 2013 Rise Set
Actual Time 5:46 AM PDT 8:44 PM PDT
Civil Twilight 5:10 AM PDT 9:19 PM PDT
Nautical Twilight 4:24 AM PDT 10:05 PM PDT
Astronomical Twilight 3:28 AM PDT 11:00 PM PDT
Moon 12:10 AM PDT (7/30) 3:08 PM PDT (7/30)
Length of Visible Light 16h 09m
Length of Day
14h 57m
Last Quarter, 40% of the Moon is Illuminated
Jul 30
Last Quarter
Aug 6
New
Aug 14
First Quarter
Aug 20
Full
Aug 28
Last Quarter

Hourly Weather History & Observations

Time (PDT) Temp. Dew Point Humidity Pressure Visibility Wind Dir Wind Speed Gust Speed Precip Events Conditions
12:15 AM 55.4 °F 55.4 °F 100% 30.04 in 10.0 mi Calm Calm - N/A   Mostly Cloudy
12:35 AM 53.6 °F 53.6 °F 100% 30.05 in 10.0 mi Calm Calm - N/A   Mostly Cloudy
12:55 AM 53.6 °F 53.6 °F 100% 30.05 in 10.0 mi Calm Calm - N/A   Scattered Clouds
1:15 AM 53.6 °F 53.6 °F 100% 30.05 in 10.0 mi Calm Calm - N/A   Mostly Cloudy
1:35 AM 53.6 °F 53.6 °F 100% 30.05 in 10.0 mi Calm Calm - N/A   Mostly Cloudy
1:55 AM 53.6 °F 53.6 °F 100% 30.05 in 10.0 mi Calm Calm - N/A   Overcast
2:15 AM 53.6 °F 53.6 °F 100% 30.06 in 10.0 mi Calm Calm - N/A   Mostly Cloudy
2:35 AM 53.6 °F 53.6 °F 100% 30.06 in 10.0 mi Calm Calm - N/A   Mostly Cloudy
2:55 AM 51.8 °F 51.8 °F 100% 30.07 in 10.0 mi Calm Calm - N/A   Overcast
3:15 AM 51.8 °F 51.8 °F 100% 30.08 in 10.0 mi Calm Calm - N/A   Mostly Cloudy
3:35 AM 51.8 °F 51.8 °F 100% 30.08 in 10.0 mi Calm Calm - N/A   Mostly Cloudy
3:55 AM 50.0 °F 50.0 °F 100% 30.08 in 10.0 mi Calm Calm - N/A   Mostly Cloudy
4:15 AM 50.0 °F 50.0 °F 100% 30.09 in 10.0 mi Calm Calm - N/A   Mostly Cloudy
4:35 AM 50.0 °F 50.0 °F 100% 30.09 in 10.0 mi Calm Calm - N/A   Mostly Cloudy
4:55 AM 50.0 °F 50.0 °F 100% 30.10 in 10.0 mi Calm Calm - N/A   Mostly Cloudy
5:15 AM 50.0 °F 50.0 °F 100% 30.10 in 10.0 mi Calm Calm - N/A   Mostly Cloudy
5:35 AM 50.0 °F 50.0 °F 100% 30.10 in 10.0 mi Calm Calm - N/A   Mostly Cloudy
5:55 AM 50.0 °F 50.0 °F 100% 30.11 in 10.0 mi Calm Calm - N/A   Mostly Cloudy
6:15 AM 53.6 °F 53.6 °F 100% 30.12 in 10.0 mi Calm Calm - N/A   Scattered Clouds
6:35 AM 53.6 °F 53.6 °F 100% 30.12 in 10.0 mi Calm Calm - N/A   Mostly Cloudy
6:55 AM 53.6 °F 53.6 °F 100% 30.13 in 10.0 mi Calm Calm - N/A   Mostly Cloudy
7:15 AM 53.6 °F 53.6 °F 100% 30.14 in 10.0 mi Calm Calm - N/A   Mostly Cloudy
7:35 AM 53.6 °F 53.6 °F 100% 30.14 in 10.0 mi Calm Calm - N/A   Overcast
7:55 AM 55.4 °F 55.4 °F 100% 30.14 in 10.0 mi Calm Calm - N/A   Mostly Cloudy
8:15 AM 55.4 °F 53.6 °F 94% 30.15 in 10.0 mi Calm Calm - N/A   Mostly Cloudy
8:35 AM 55.4 °F 53.6 °F 94% 30.15 in 10.0 mi Calm Calm - N/A   Mostly Cloudy
8:55 AM 55.4 °F 55.4 °F 100% 30.16 in 10.0 mi Calm Calm - N/A   Mostly Cloudy
9:15 AM 57.2 °F 55.4 °F 94% 30.16 in 10.0 mi Calm Calm - N/A   Overcast
9:55 AM 57.2 °F 55.4 °F 94% 30.16 in 10.0 mi Calm Calm - N/A   Mostly Cloudy
10:15 AM 57.2 °F 55.4 °F 94% 30.16 in 10.0 mi Calm Calm - N/A   Mostly Cloudy
10:35 AM 59.0 °F 55.4 °F 88% 30.16 in 10.0 mi Calm Calm - N/A   Overcast
10:55 AM 59.0 °F 55.4 °F 88% 30.16 in 10.0 mi Calm Calm - N/A   Mostly Cloudy
11:15 AM 60.8 °F 55.4 °F 82% 30.16 in 10.0 mi Calm Calm - N/A   Mostly Cloudy
11:35 AM 62.6 °F 55.4 °F 77% 30.16 in 10.0 mi Calm Calm - N/A   Overcast
11:55 AM 66.2 °F 55.4 °F 68% 30.16 in 10.0 mi Calm Calm - N/A   Mostly Cloudy
12:15 PM 66.2 °F 55.4 °F 68% 30.15 in 10.0 mi Calm Calm - N/A   Mostly Cloudy
12:35 PM 68.0 °F 57.2 °F 68% 30.15 in 10.0 mi Calm Calm - N/A   Mostly Cloudy
12:55 PM 68.0 °F 57.2 °F 68% 30.15 in 10.0 mi Calm Calm - N/A   Mostly Cloudy
1:15 PM 69.8 °F 57.2 °F 64% 30.15 in 10.0 mi Calm Calm - N/A   Mostly Cloudy
1:35 PM 71.6 °F 55.4 °F 57% 30.15 in 10.0 mi Calm Calm - N/A   Mostly Cloudy
1:55 PM 71.6 °F 57.2 °F 60% 30.15 in 10.0 mi Calm Calm - N/A   Mostly Cloudy
2:15 PM 73.4 °F 57.2 °F 57% 30.14 in 10.0 mi Calm Calm - N/A   Mostly Cloudy
2:35 PM 73.4 °F 57.2 °F 57% 30.13 in 10.0 mi Calm Calm - N/A   Mostly Cloudy
2:55 PM 75.2 °F 57.2 °F 53% 30.13 in 10.0 mi Calm Calm - N/A   Scattered Clouds
3:15 PM 75.2 °F 57.2 °F 53% 30.13 in 10.0 mi Calm Calm - N/A   Scattered Clouds
3:35 PM 77.0 °F 57.2 °F 50% 30.12 in 10.0 mi Calm Calm - N/A   Scattered Clouds
3:55 PM 77.0 °F 55.4 °F 47% 30.12 in 10.0 mi Calm Calm - N/A   Mostly Cloudy
4:15 PM 77.0 °F 55.4 °F 47% 30.11 in 9.0 mi Calm Calm - N/A   Scattered Clouds
4:35 PM 77.0 °F 55.4 °F 47% 30.11 in 10.0 mi Calm Calm - N/A   Scattered Clouds
4:55 PM 77.0 °F 55.4 °F 47% 30.11 in 10.0 mi Calm Calm - N/A   Scattered Clouds
5:15 PM 77.0 °F 55.4 °F 47% 30.11 in 10.0 mi Calm Calm - N/A   Scattered Clouds
5:35 PM 77.0 °F 55.4 °F 47% 30.11 in 10.0 mi Calm Calm - N/A   Scattered Clouds
5:55 PM 78.8 °F 55.4 °F 44% 30.11 in 10.0 mi Calm Calm - N/A   Scattered Clouds
6:15 PM 77.0 °F 57.2 °F 50% 30.10 in 10.0 mi Calm Calm - N/A   Scattered Clouds
6:35 PM 77.0 °F 57.2 °F 50% 30.10 in 10.0 mi Calm Calm - N/A   Partly Cloudy
6:55 PM 75.2 °F 57.2 °F 53% 30.10 in 10.0 mi Calm Calm - N/A   Partly Cloudy
7:15 PM 75.2 °F 57.2 °F 53% 30.10 in 10.0 mi Calm Calm - N/A   Partly Cloudy
7:35 PM 73.4 °F 57.2 °F 57% 30.10 in 10.0 mi Calm Calm - N/A   Partly Cloudy
7:55 PM 71.6 °F 57.2 °F 60% 30.11 in 10.0 mi Calm Calm - N/A   Partly Cloudy
8:15 PM 71.6 °F 57.2 °F 60% 30.11 in 10.0 mi Calm Calm - N/A   Scattered Clouds
8:35 PM 66.2 °F 59.0 °F 78% 30.11 in 10.0 mi Calm Calm - N/A   Mostly Cloudy
8:55 PM 64.4 °F 59.0 °F 83% 30.12 in 10.0 mi Calm Calm - N/A   Mostly Cloudy
9:15 PM 62.6 °F 59.0 °F 88% 30.12 in 10.0 mi Calm Calm - N/A   Mostly Cloudy
9:35 PM 62.6 °F 59.0 °F 88% 30.12 in 10.0 mi Calm Calm - N/A   Mostly Cloudy
9:55 PM 60.8 °F 57.2 °F 88% 30.13 in 10.0 mi Calm Calm - N/A   Mostly Cloudy
10:15 PM 59.0 °F 57.2 °F 94% 30.13 in 10.0 mi Calm Calm - N/A   Scattered Clouds
10:35 PM 59.0 °F 57.2 °F 94% 30.13 in 10.0 mi Calm Calm - N/A   Scattered Clouds
10:55 PM 57.2 °F 57.2 °F 100% 30.13 in 10.0 mi Calm Calm - N/A   Mostly Cloudy
11:15 PM 57.2 °F 57.2 °F 100% 30.13 in 10.0 mi Calm Calm - N/A   Scattered Clouds
11:55 PM 57.2 °F 57.2 °F 100% 30.14 in 10.0 mi Calm Calm - N/A   Scattered Clouds